Regional Weather Roundup
Issued by NWS Portland, ME

Current Version | Previous Version | Text Only | Print | Product List | Glossary Off
Versions: 1 2 3 4 5 6 7 8 9 10 11 12 13 14 15 16 17 18 19 20 21 22 23 24 25 26 27 28 29 30 31 32 33 34 35 36 37 38 39 40 41 42 43 44 45 46 47 48 49 50
000 ASUS41 KGYX 281910 RWRGYX WEATHER ROUNDUP FOR MAINE AND NEW HAMPSHIRE NATIONAL WEATHER SERVICE GRAY ME 300 PM EDT THU MAY 28 2020 MEZ002-005-006-010-012-015-018-020-021-024-026-027-029-282000- MAINE CITY SKY/WX TMP DP RH WIND PRES REMARKS PORTLAND MOSUNNY 77 63 61 S14G24 30.06F SANFORD PTSUNNY 82 66 58 SW8G17 30.09S BAR HARBOR PTSUNNY 66 60 81 S21 30.08S WISCASSET MOSUNNY 78 63 59 SW14G25 30.08S ROCKLAND PTSUNNY 71 63 75 SW17G26 30.08F FRYEBURG MOSUNNY 88 61 40 VRB7G17 30.05F LEWISTONAUBURN MOSUNNY 86 63 45 SW14G20 30.04F AUGUSTA PTSUNNY 83 66 56 S8 30.05S WATERVILLE PTSUNNY 81 68 64 VRB5 30.02F BANGOR PTSUNNY 79 63 57 S14 30.03F GREENVILLE N/A 84 63 49 S8 30.01F MILLINOCKET MOSUNNY 88 66 48 MISG 29.99F HX 90 HOULTON SUNNY 88 65 46 SW9G17 29.95F HX 90 PRESQUE ISLE MOSUNNY 89 68 49 SW13 29.94F HX 93 FRENCHVILLE MOSUNNY 88 64 44 S13 29.91F CARIBOU MOSUNNY 89 68 49 S13 29.92F HX 93 $$ NHZ002-005-008-009-011-012-014-282000- NEW HAMPSHIRE CITY SKY/WX TMP DP RH WIND PRES REMARKS PORTSMOUTH PTSUNNY 84 64 51 SW14G22 30.09F ROCHESTER PTSUNNY 82 64 54 W9G18 30.10S NASHUA CLOUDY 81 66 60 W9 30.13F MANCHESTER PTSUNNY 81 63 54 SW13G18 30.10F CONCORD CLOUDY 80 63 55 SW16 30.11F LACONIA MOSUNNY 81 65 58 SW18G25 30.09S PLYMOUTH CLOUDY 81 62 53 S7 30.07S BERLIN PTSUNNY 85 59 41 VRB7 30.06F WHITEFIELD MOSUNNY 83 57 41 VRB7G20 30.06F JAFFREY CLOUDY 75 63 66 SW12G21 30.16F KEENE CLOUDY 79 66 64 S15 30.12F LEBANON PTSUNNY 83 65 54 S15G24 30.07F MT WASHINGTON PTSUNNY 61 52 72 W21G28 N/A $$ VTZ005-007-008-282000- VERMONT CITY SKY/WX TMP DP RH WIND PRES REMARKS ST JOHNSBURY N/A 82 60 47 MISG 30.03F MONTPELIER PTSUNNY 81 63 54 SW13G20 30.10F BURLINGTON PTSUNNY 84 63 49 S14 30.01F $$ MAZ007-012-024-CTZ003-RIZ002-NYZ038-NYZ072-282000- SOUTHERN NEW ENGLAND AND NY CITY SKY/WX TMP DP RH WIND PRES REMARKS BOSTON PTSUNNY 76 66 71 S15G23 30.15S WORCESTER LGT RAIN 72 65 78 SW12 30.18F NANTUCKET MOSUNNY 63 58 83 S15 30.23F PROVIDENCE CLOUDY 77 64 64 SW18G26 30.18F HARTFORD CLOUDY 76 65 68 S17G23 30.14F ALBANY PTSUNNY 82 65 56 S16G29 30.07F NEW YORK CITY CLOUDY 74 66 76 S17G31 30.12F $$ ANZ081-ANZ082-ANZ150-NHZ014-MEZ023>029-282000- COASTAL MARINE OBSERVATIONS STATION/POSITION TIME TEMP WIND PRES WAVE AIR SEA DIR/SP/G HT/PER (UTC) (F) (DEG/KT/KT) (MB) (FT/S) MOUNT DESERT ROC 1900 190/ 21/ 23 1019.0F ISLE OF SHOALS 1900 71 190/ 26/ 27 1019.2F JEFFREYS LEDGE 1808 53 N/A 3/ 7 GEORGES BANK BUO 1850 46 1026.8F 3/ 7 $$ .............KEY.............. WCI - WIND CHILL TC - TEMPERATURE IN CELSIUS VSB - VISIBILITY IN MILES HX - HEAT INDEX FAIR- INDICATES FEW OR NO CLOUDS BELOW 12,000 FT, WITH NO SIGNIFICANT WEATHER AND/OR OBSTRUCTIONS TO VISIBILITY.

USA.gov is the U.S. government's official web portal to all federal, state and local government web resources and services.